Bennington, VT

3:02 PM EDT on June 23, 2017 (GMT -0400)
Morse State

Weather History for KDDH - May, 2012

Change the Weather History Date:

Tuesday, May 29, 2012

  Actual Average Record
Temperature  
Mean Temperature 77 °F 59 °F  
Max Temperature 90 °F 70 °F 90 °F (2012)
Min Temperature 63 °F 47 °F 34 °F (2008)
Degree Days  
Heating Degree Days 0 7  
Month to date heating degree days 169 303  
Since 1 July heating degree days 5069 7126  
Cooling Degree Days 12 1  
Month to date cooling degree days 37 2  
Year to date cooling degree days 43 5  
Growing Degree Days 26 (Base 50)    
Moisture  
Dew Point 66 °F    
Average Humidity 70    
Maximum Humidity 93    
Minimum Humidity 46    
Precipitation  
Precipitation 0.50 in 0.14 in 1.09 in (2013)
Month to date precipitation 5.67 3.36  
Year to date precipitation 11.93 14.77  
Sea Level Pressure  
Sea Level Pressure 29.76 in    
Wind  
Wind Speed 3 mph (SSW)    
Max Wind Speed 28 mph    
Max Gust Speed 40 mph    
Visibility 7 miles    
Events Rain , Thunderstorm    
T = Trace of Precipitation, MM = Missing Value Source: NWS Daily Summary

Daily Weather History Graph

Daily Weather History Graph

Search for Another Location

Airport or City:

Trip Planner

Search our weather history database for the weather conditions in past years. The results will help you decide how hot, cold, wet, or windy it might be!

Date:

Astronomy

May. 29, 2012 Rise Set
Actual Time 5:18 AM EDT 8:23 PM EDT
Civil Twilight 4:44 AM EDT 8:57 PM EDT
Nautical Twilight 4:00 AM EDT 9:41 PM EDT
Astronomical Twilight 3:08 AM EDT 10:33 PM EDT
Moon 1:42 PM EDT (5/29) 1:19 AM EDT (5/29)
Length of Visible Light 16h 13m
Length of Day
15h 04m
First Quarter, 59% of the Moon is Illuminated
May 29
First Quarter
Jun 4
Full
Jun 11
Last Quarter
Jun 19
New
Jun 26
First Quarter

Hourly Weather History & Observations

Time (EDT) Temp. Heat Index Dew Point Humidity Pressure Visibility Wind Dir Wind Speed Gust Speed Precip Events Conditions
12:54 AM 78.1 °F - 66.9 °F 68% 29.81 in 10.0 mi Calm Calm - N/A   Clear
1:54 AM 75.0 °F - 66.9 °F 76% 29.82 in 10.0 mi Calm Calm - N/A   Clear
2:54 AM 72.0 °F - 66.0 °F 81% 29.81 in 9.0 mi Calm Calm - N/A   Clear
3:54 AM 70.0 °F - 66.9 °F 90% 29.82 in 8.0 mi Calm Calm - N/A   Clear
4:54 AM 69.1 °F - 66.0 °F 90% 29.81 in 6.0 mi Calm Calm - N/A   Clear
5:54 AM 68.0 °F - 66.0 °F 93% 29.82 in 4.0 mi Calm Calm - N/A   Mostly Cloudy
6:54 AM 73.0 °F - 68.0 °F 84% 29.80 in 6.0 mi Variable 5.8 mph - N/A   Haze
7:54 AM 78.1 °F - 70.0 °F 76% 29.80 in 7.0 mi Calm Calm - N/A   Clear
8:54 AM 81.0 °F 84.1 °F 69.1 °F 67% 29.78 in 8.0 mi South 3.5 mph - N/A   Scattered Clouds
9:54 AM 82.9 °F 86.5 °F 69.1 °F 63% 29.77 in 10.0 mi SW 4.6 mph - N/A   Clear
10:54 AM 84.9 °F 88.2 °F 68.0 °F 57% 29.76 in 10.0 mi West 6.9 mph - N/A   Unknown
11:54 AM 86.0 °F 89.4 °F 68.0 °F 55% 29.76 in 9.0 mi WNW 4.6 mph - N/A   Partly Cloudy
12:54 PM 87.1 °F 91.3 °F 69.1 °F 55% 29.74 in 9.0 mi South 3.5 mph - N/A   Clear
1:54 PM 88.0 °F 90.7 °F 66.9 °F 49% 29.69 in 10.0 mi South 9.2 mph - N/A   Clear
2:54 PM 84.0 °F 87.0 °F 68.0 °F 58% 29.65 in 10.0 mi South 5.8 mph - N/A   Scattered Clouds
3:54 PM 88.0 °F 90.7 °F 66.9 °F 49% 29.62 in 10.0 mi South 12.7 mph 20.7 mph N/A   Partly Cloudy
4:54 PM 87.1 °F 88.9 °F 64.9 °F 48% 29.62 in 10.0 mi South 9.2 mph 20.7 mph N/A   Clear
5:40 PM 71.6 °F - 60.8 °F 69% 29.73 in 7.0 mi Variable 6.9 mph 36.8 mph N/A Thunderstorm Mostly Cloudy
5:51 PM 68.0 °F - 62.6 °F 83% 29.76 in 2.0 mi West 11.5 mph 23.0 mph 0.10 in Rain , Thunderstorm Heavy Thunderstorms and Rain
5:54 PM 66.9 °F - 63.0 °F 87% 29.76 in 1.0 mi Variable 3.5 mph 23.0 mph 0.26 in Rain , Thunderstorm Heavy Thunderstorms and Rain
6:01 PM 66.2 °F - 64.4 °F 94% 29.79 in 0.8 mi Variable 3.5 mph - 0.12 in Rain , Thunderstorm Heavy Thunderstorms and Rain
6:04 PM 66.2 °F - 64.4 °F 94% 29.80 in 1.0 mi North - - 0.12 in Rain , Thunderstorm Heavy Thunderstorms and Rain
6:12 PM 66.2 °F - 64.4 °F 94% 29.79 in 3.0 mi Calm Calm - 0.14 in Rain , Thunderstorm Light Thunderstorms and Rain
6:29 PM 66.2 °F - 64.4 °F 94% 29.77 in 10.0 mi Calm Calm - 0.15 in Thunderstorm Thunderstorm
6:54 PM 66.9 °F - 64.0 °F 90% 29.74 in 10.0 mi Calm Calm - 0.15 in   Mostly Cloudy
7:54 PM 66.0 °F - 64.0 °F 93% 29.73 in 10.0 mi Calm Calm - 0.01 in Rain Light Rain
8:54 PM 66.9 °F - 63.0 °F 87% 29.72 in 10.0 mi Calm Calm - 0.03 in Rain Light Rain
9:54 PM 66.0 °F - 63.0 °F 90% 29.74 in 6.0 mi SSE 5.8 mph - 0.05 in Rain Light Rain
10:54 PM 64.9 °F - 64.0 °F 97% 29.73 in 6.0 mi Calm Calm - 0.00 in   Clear
11:54 PM 64.9 °F - 63.0 °F 93% 29.73 in 6.0 mi Calm Calm - N/A   Clear